User: anonymous   Login
Location: Long Geng
(2.6167°N, 114.1333°E)
Time: 02:20:39
(UTC+00:00)
Language:

Ariane H10 - Orbit

View from above orbital plane
View from above orbital plane
View from above satellite
View from above satellite

Ground track
Ground track

The orbit data is extracted from the following two-line orbital elements,

1 19689U 88109C   21207.80855896  .00000006  00000-0  42991-3 0  9994
2 19689   6.5884 243.3716 7201211  62.6074 351.5339  2.28913576237083
Epoch (UTC): 26 July 2021 19:24:19
Eccentricity: 0.7201211
inclination: 6.5884°
perigee height: 428 km
apogee height: 35454 km
right ascension of ascending node: 243.3716°
argument of perigee: 62.6074°
revolutions per day: 2.28913576
mean anomaly at epoch: 351.5339°
orbit number at epoch: 23708

The dashed part of the orbit path shows where the satellite is in the earth's shadow,  

DLR